Starlink 33707

operational
NORAD ID: 63401 Int'l Des: 2025-065 Owner: SPXS Country: US Constellation: starlink
LEOCIRCULAR

Starlink 33707について

説明を読み込み中...

リアルタイム位置

3D地球を読み込み中...

次回通過

高度履歴

Altitude vs Time

uPlot chart will show altitude changes over time

軌道要素

1 63401U 25065C 25302.53871654 .00039207 00000-0 14260-2 0 9999
2 63401 42.9952 127.6239 0000101 231.2602 128.8241 15.27596427 32789
Epoch: Oct 29, 2025 • Age: 8 hours

現在のステータス

高度 482.4 km
速度 7.63 km/s
衛星直下点 20.62°N, 157.32°E
打ち上げ日 Mar 31, 2025
運用期間 0.5 years
タイプ internet

技術仕様

分類 Payload
質量 575.00 kg
乾燥質量 530.00 kg
総質量 575.00 kg
長さ 0.30 m
直径 4.10 m
スパン 29.00 m
形状 Box + pan
製造者 SPXS
バスタイプ Starlink V2MO
フェーズステータス In Orbit
所有者/国 SPXS/US

大規模コンステレーション

Loading constellations...